Location: Songkhla
(7.2000°N, 100.6000°E)
Time: 20:49:27
(UTC+07:00)

Cosmos 2154 Rocket - Pass Details

Date: 16 April 2026
Orbit: 965 x 996 km, 82.9° (Epoch: 20 May)

Event Time Altitude Azimuth Distance (km) Brightness Sun altitude
Rises 18:42:48 0° 174° (S) 3,670 6.8 -4.9°
Reaches altitude 10° 18:45:21 10° 170° (S) 2,726 6.1 -5.5°
Maximum altitude 18:51:28 57° 92° (E) 1,142 4.1 -7.0°
Drops below altitude 10° 18:57:37 10° 15° (NNE) 2,743 6.3 -8.5°
Sets 19:00:11 0° 11° (NNE) 3,694 7.0 -9.1°
